Volver al catálogo

THORAD DELTA 1 DEB

ActivoLEO
NORAD 13528·DEBRIS·🇺🇸 United States

Lanzado Nov 15, 1974 desde Vandenberg Space Force Base

Loading…

Próximos Pases (próximas 24 horas)

TLE

ActualizadoSource: Space-Track

Época: Sep 14, 2026, 00:29 UTC

1 13528U 74089EP  26257.02029903  .00000426  00000-0  21162-2 0  9990
2 13528 103.1397 286.4719 0074178 262.7459 126.3216 12.79555734141122

Sigue THORAD DELTA 1 DEB en tiempo real con AllMySat

Download on the App Store